Location: Columbia
(38.9520°N, 92.3340°W)
Time: 16:23:59
(UTC-05:00)

FENGYUN 3A - Visible Passes

Search period start: 17 April 2014 00:00
Search period end: 27 April 2014 00:00
Orbit: 820 x 834 km, 98.6° (Epoch: 17 April)

Date Brightness Start Highest point End Pass type
(mag) Time Alt. Az. Time Alt. Az. Time Alt. Az.
17 Apr 5.2 20:52:11 14° E 20:54:22 18° ENE 20:57:53 10° NNE visible
17 Apr 4.0 22:33:41 56° WSW 22:34:06 57° W 22:39:23 10° NNW visible
18 Apr 5.6 20:33:51 10° E 20:35:57 12° ENE 20:38:02 10° NE visible
18 Apr 3.5 22:14:41 68° S 22:15:24 85° WSW 22:20:47 10° NNW visible
19 Apr 3.6 21:55:40 52° SE 21:56:45 65° ENE 22:02:04 10° N visible
19 Apr 5.9 23:37:10 15° W 23:37:26 15° W 23:40:18 10° WNW visible
20 Apr 4.1 21:36:40 35° ESE 21:38:09 44° ENE 21:43:12 10° N visible
20 Apr 5.5 23:18:10 22° W 23:18:33 22° W 23:22:39 10° NW visible
21 Apr 4.6 21:17:40 24° ESE 21:19:36 30° ENE 21:24:12 10° N visible
21 Apr 4.9 22:59:10 32° WSW 22:59:44 33° W 23:04:31 10° NNW visible
22 Apr 5.1 20:58:40 16° E 21:01:06 21° ENE 21:05:00 10° NNE visible
22 Apr 4.2 22:40:10 45° SW 22:40:57 49° W 22:46:09 10° NNW visible
23 Apr 5.5 20:39:54 10° E 20:42:40 14° ENE 20:45:26 10° NNE visible
23 Apr 3.7 22:21:09 56° SSW 22:22:14 74° WSW 22:27:36 10° NNW visible
24 Apr 3.5 22:02:09 50° SSE 22:03:34 76° ENE 22:08:55 10° N visible
24 Apr 6.1 23:43:39 12° W 23:44:21 12° W 23:46:25 10° WNW visible
25 Apr 3.9 21:43:09 36° ESE 21:44:56 51° ENE 21:50:07 10° N visible
25 Apr 5.6 23:24:39 18° WSW 23:25:27 19° W 23:29:10 10° NW visible
26 Apr 4.4 21:24:09 25° ESE 21:26:22 35° ENE 21:31:10 10° N visible
26 Apr 5.1 23:05:39 27° WSW 23:06:36 28° W 23:11:10 10° NW visible
